TimeEDT,TemperatureF,Dew PointF,Humidity,Sea Level PressureIn,VisibilityMPH,Wind Direction,Wind SpeedMPH,Gust SpeedMPH,PrecipitationIn,Events,Conditions,WindDirDegrees,DateUTC
12:56 AM,46.9,39.0,74,30.18,10.0,WNW,6.9,-,N/A,,Overcast,290,2012-10-08 04:56:00
1:15 AM,46.4,39.2,76,30.18,10.0,NW,9.2,-,N/A,,Overcast,310,2012-10-08 05:15:00
1:56 AM,44.1,37.9,79,30.20,10.0,NNW,3.5,-,N/A,,Scattered Clouds,330,2012-10-08 05:56:00
2:56 AM,43.0,37.9,82,30.18,10.0,NNW,6.9,-,N/A,,Partly Cloudy,330,2012-10-08 06:56:00
3:56 AM,43.0,37.0,80,30.19,10.0,Calm,Calm,-,N/A,,Clear,0,2012-10-08 07:56:00
4:56 AM,42.1,37.0,82,30.21,10.0,NW,6.9,-,N/A,,Clear,320,2012-10-08 08:56:00
5:56 AM,41.0,36.0,82,30.23,10.0,NNW,5.8,-,N/A,,Partly Cloudy,330,2012-10-08 09:56:00
6:56 AM,41.0,37.0,86,30.25,10.0,NNW,4.6,-,N/A,,Clear,330,2012-10-08 10:56:00
7:56 AM,43.0,37.9,82,30.27,10.0,NNW,3.5,-,N/A,,Mostly Cloudy,330,2012-10-08 11:56:00
8:56 AM,45.0,37.9,76,30.28,10.0,NNW,4.6,-,N/A,,Overcast,340,2012-10-08 12:56:00
9:56 AM,46.0,37.9,73,30.29,10.0,NNW,4.6,-,N/A,,Overcast,340,2012-10-08 13:56:00
10:56 AM,48.0,37.9,68,30.27,10.0,North,6.9,-,N/A,,Overcast,360,2012-10-08 14:56:00
11:56 AM,48.9,37.9,66,30.29,10.0,Calm,Calm,-,N/A,,Overcast,0,2012-10-08 15:56:00
12:56 PM,48.9,39.0,69,30.30,10.0,Calm,Calm,-,N/A,,Overcast,0,2012-10-08 16:56:00
1:56 PM,50.0,39.0,66,30.27,10.0,Calm,Calm,-,N/A,,Overcast,0,2012-10-08 17:56:00
2:56 PM,50.0,39.0,66,30.28,10.0,SSW,4.6,-,0.00,Rain,Light Rain,210,2012-10-08 18:56:00
3:56 PM,48.2,39.2,71,30.29,6.0,SW,6.9,-,N/A,Rain,Light Rain,220,2012-10-08 19:56:00
4:56 PM,46.9,39.9,77,30.28,8.0,West,3.5,-,0.01,Rain,Light Rain,260,2012-10-08 20:56:00
5:56 PM,46.0,41.0,83,30.28,8.0,WNW,4.6,-,0.00,Rain,Light Rain,300,2012-10-08 21:56:00
6:56 PM,45.0,41.0,86,30.27,9.0,NNW,6.9,-,0.00,Rain,Light Rain,330,2012-10-08 22:56:00
7:56 PM,46.0,41.0,83,30.26,10.0,Calm,Calm,-,0.00,,Overcast,0,2012-10-08 23:56:00
8:56 PM,46.4,42.8,87,30.25,10.0,Calm,Calm,-,N/A,,Overcast,0,2012-10-09 00:56:00
9:56 PM,46.4,42.8,87,30.24,10.0,Calm,Calm,-,N/A,,Overcast,0,2012-10-09 01:56:00
10:56 PM,45.0,42.1,90,30.24,10.0,NNW,3.5,-,N/A,,Overcast,330,2012-10-09 02:56:00
11:56 PM,46.0,42.1,86,30.24,10.0,NW,3.5,-,N/A,,Overcast,320,2012-10-09 03:56:00